Weather observations for the past three days for
Eugene, Mahlon Sweet Field
Metric (Imperial)
Date Time (pdt) Wind (kph) Vis. (km) Weather Sky Cond. Temperature (ºC) Relative Humidity Wind Chill (°C) Heat Index (°C) Pressure Precipitation (cm)
Air Dwpt 6 hour altimeter (cm) sea level (mb) 1 hr 3 hr 6 hr
Max. Min.
16 05:54 Calm 16.09 Mostly Cloudy BKN130 6.7 4.4 85% 76.5 1020.0
16 04:54 E 6 16.09 Fair CLR 3.3 2.2 10 2.8 93% 76.56 1020.6
16 03:54 Calm 16.09 Fair CLR 5 3.3 89% 76.58 1021.0
16 02:54 Calm 16.09 Fair CLR 5 3.3 89% 76.61 1021.3
16 01:54 SW 6 16.09 Fair CLR 6.1 3.9 86% 76.63 1021.6
16 00:54 Calm 16.09 Fair CLR 7.2 4.4 83% 76.66 1022.1
15 23:54 Calm 16.09 Fair CLR 8.9 4.4 74% 76.71 1022.8
15 22:54 W 7 16.09 A Few Clouds FEW060 10 4.4 19.4 7.8 68% 9 76.73 1023.0
15 21:54 NW 7 16.09 A Few Clouds FEW060 10.6 5 69% 76.76 1023.2
15 20:54 NW 7 16.09 A Few Clouds FEW060 12.2 6.1 67% 76.68 1022.4
15 19:54 SW 17 16.09 A Few Clouds FEW060 16.1 4.4 46% 76.68 1022.3
15 18:54 SW 20 16.09 A Few Clouds FEW060 FEW240 17.8 3.9 40% 76.68 1022.2
15 17:54 SW 20 16.09 A Few Clouds FEW060 FEW240 18.9 2.8 34% 76.68 1022.3
15 16:54 SW 13 16.09 Partly Cloudy FEW055 SCT070 17.8 3.9 20 14.4 40% 76.71 1022.5
15 15:54 SW 13 G 35 16.09 Partly Cloudy FEW050 SCT065 19.4 5 39% 76.71 1022.5
15 14:54 SW 22 16.09 Mostly Cloudy FEW050 SCT065 BKN070 19.4 3.3 35% 76.71 1022.6
15 13:54 W 11 16.09 Mostly Cloudy FEW040 SCT050 BKN070 17.8 6.7 48% 76.71 1022.6
15 12:54 SW 15 G 28 16.09 Mostly Cloudy FEW033 SCT045 BKN065 18.3 6.1 45% 76.71 1022.6
15 11:54 SW 7 G 31 16.09 Light Rain SCT033 BKN045 BKN060 14.4 7.8 65% 76.71 1022.7
15 10:54 S 15 16.09 Partly Cloudy FEW030 FEW045 SCT060 15.6 8.3 15.6 10 62% 76.71 1022.8 0.2
15 09:54 S 17 16.09 Mostly Cloudy FEW020 SCT040 BKN060 13.9 8.3 69% 76.71 1022.6 0.03
15 08:54 S 13 16.09 Mostly Cloudy FEW013 SCT020 BKN040 12.8 10.6 87% 76.71 1022.5 0.15
15 07:54 SE 17 6.44 Light Rain Fog/Mist FEW023 SCT030 OVC050 11.1 8.9 86% 76.68 1022.4 0.03
15 06:54 SE 11 16.09 Overcast FEW027 BKN046 OVC055 10.6 8.9 89% 76.66 1022.0 0.03
15 05:54 SE 13 16.09 Overcast FEW020 BKN045 OVC055 10 8.3 89% 8 76.63 1021.7
15 04:54 SE 11 16.09 Mostly Cloudy BKN055 BKN090 10 7.8 12.2 9.4 86% 9 76.63 1021.4
15 03:54 SE 7 16.09 Light Rain BKN045 OVC050 10.6 8.3 86% 76.63 1021.5
15 02:54 SE 11 16.09 Overcast BKN055 OVC075 10 7.2 83% 9 76.63 1021.5
15 01:54 SE 11 16.09 A Few Clouds FEW043 FEW065 9.4 7.2 86% 8 76.61 1021.4
15 00:54 S 11 16.09 Fair CLR 11.1 7.8 80% 76.63 1021.4
14 23:54 S 9 16.09 Fair CLR 11.1 6.7 75% 76.61 1021.2
14 22:54 SW 13 16.09 Partly Cloudy FEW033 SCT060 SCT190 11.7 6.7 22.8 11.7 72% 76.58 1020.9
14 21:54 SW 11 16.09 Mostly Cloudy SCT033 BKN060 BKN190 14.4 8.3 67% 76.53 1020.2
14 20:54 W 7 16.09 Partly Cloudy FEW025 SCT060 SCT190 14.4 8.3 67% 76.48 1019.7
14 19:54 SW 24 16.09 Mostly Cloudy FEW030 SCT060 BKN200 16.7 7.8 56% 76.45 1019.2
14 18:54 SW 17 16.09 Mostly Cloudy FEW020 SCT060 BKN230 19.4 6.7 44% 76.43 1018.9
14 17:54 W 13 16.09 Mostly Cloudy SCT060 BKN075 BKN250 21.1 7.2 41% 76.43 1018.9
14 16:54 SW 9 16.09 Mostly Cloudy BKN065 BKN250 22.2 6.1 22.8 17.8 35% 76.45 1019.1
14 15:54 W 13 16.09 Mostly Cloudy SCT070 BKN190 BKN250 22.2 6.1 35% 76.5 1019.8
14 14:54 W 13 16.09 Mostly Cloudy SCT060 BKN250 21.7 5.6 35% 76.53 1020.3
14 13:54 Vrbl 6 16.09 Overcast FEW030 BKN200 OVC250 21.7 5 34% 76.58 1020.9
14 12:54 Vrbl 7 16.09 Mostly Cloudy FEW030 SCT180 BKN250 20.6 5 36% 76.63 1021.6
14 11:54 Vrbl 6 16.09 Mostly Cloudy FEW035 FEW180 BKN250 19.4 5 39% 76.66 1022.1
14 10:54 N 6 16.09 Mostly Cloudy FEW035 FEW180 BKN250 18.3 5 18.3 2.8 42% 76.71 1022.6
14 09:54 Calm 16.09 Partly Cloudy FEW180 SCT250 15.6 5.6 52% 76.76 1023.3
14 08:54 Calm 16.09 Mostly Cloudy FEW150 BKN250 13.3 5.6 60% 76.76 1023.4
14 07:54 S 7 16.09 Partly Cloudy FEW150 SCT250 11.7 5.6 66% 76.73 1023.1
14 06:54 Calm 16.09 Partly Cloudy FEW150 SCT250 8.9 6.1 83% 76.73 1023.1
14 05:54 SE 7 16.09 Partly Cloudy FEW120 SCT200 5.6 3.3 85% 4 76.76 1023.2
14 04:54 Calm 16.09 Fair CLR 3.3 1.7 13.3 3.3 89% 76.71 1022.8
14 03:54 Calm 16.09 Fair CLR 6.1 3.3 82% 76.66 1022.1
14 02:54 Calm 16.09 Fair CLR 7.2 3.9 80% 76.66 1021.9
14 01:54 S 6 16.09 Fair CLR 10 3.9 66% 76.66 1021.9
14 00:54 Calm 16.09 Fair CLR 10 4.4 68% 76.63 1021.5
13 23:54 SW 9 16.09 Fair CLR 11.1 5 66% 76.61 1021.2
13 21:54 Calm 16.09 Mostly Cloudy FEW100 BKN200 14.4 6.1 58% 76.5 1019.8
13 20:54 N 7 16.09 Mostly Cloudy FEW150 BKN250 15.6 7.2 58% 76.43 1018.9
13 19:54 Calm 16.09 Mostly Cloudy FEW100 BKN200 18.3 7.8 51% 76.4 1018.5
13 18:54 SW 20 16.09 Mostly Cloudy FEW100 BKN200 21.1 6.7 39% 76.33 1017.4
13 17:54 NW 15 16.09 Mostly Cloudy FEW080 BKN250 25 9.4 37% 26 76.23 1016.2
13 16:54 Vrbl 11 16.09 Partly Cloudy FEW060 SCT250 26.1 8.9 26.1 18.9 34% 26 76.2 1015.9
13 15:54 NE 9 16.09 Partly Cloudy FEW060 SCT250 25 8.9 36% 26 76.23 1016.1
13 14:54 N 9 16.09 A Few Clouds FEW050 FEW250 24.4 8.3 36% 25 76.25 1016.6
13 13:54 Calm 16.09 A Few Clouds FEW250 23.3 7.2 36% 76.3 1017.1
13 12:54 NW 17 16.09 A Few Clouds FEW250 22.2 7.2 38% 76.33 1017.6
13 11:54 NW 13 G 41 16.09 Fair CLR 20.6 8.3 45% 76.35 1017.9
13 10:54 NW 11 16.09 Fair CLR 19.4 8.9 19.4 5 51% 76.38 1018.3
13 09:54 NW 7 16.09 Fair CLR 17.2 7.8 54% 76.4 1018.5
13 08:54 NW 9 16.09 A Few Clouds FEW200 16.1 8.3 60% 76.4 1018.6
13 07:54 NW 11 16.09 A Few Clouds FEW200 13.9 8.3 69% 76.4 1018.6
13 06:54 Calm 16.09 A Few Clouds FEW200 10 7.8 86% 76.4 1018.6
Date Time (pdt) Wind (kph) Vis. (km) Weather Sky Cond. Air Dwpt Max. Min. Relative Humidity Wind Chill (°C) Heat Index (°C) altimeter (cm) sea level (mb) 1 hr 3 hr 6 hr
6 hour
Temperature (ºC) Pressure Precipitation (cm)